EW1196 Weather Reports


time (UTC)temp
F
wind
direction
speed
knots
gust
knots
rain 1hr
in
rain 24hr
in
rain mn
in
humidity
%
barometer
mb
20260902195505 91 215 4.3 8.7 0.00 0.00 0.00 60 1014.3
20260902195005 91 234 3.5 7.8 0.00 0.00 0.00 59 1014.3
20260902194004 91 233 2.6 8.7 0.00 0.00 0.00 60 1014.5
20260902193504 91 266 2.6 5.2 0.00 0.00 0.00 60 1014.5
20260902193004 91 239 3.5 7.8 0.00 0.00 0.00 61 1014.6
20260902192505 91 228 1.7 8.7 0.00 0.00 0.00 61 1014.6
20260902191505 92 230 2.6 6.1 0.00 0.00 0.00 61 1014.7
20260902191005 91 242 1.7 2.6 0.00 0.00 0.00 62 1014.8
20260902185505 91 211 2.6 7.8 0.00 0.00 0.00 60 1014.8
20260902185005 91 174 2.6 6.1 0.00 0.00 0.00 61 1014.9
20260902184505 91 241 1.7 6.1 0.00 0.00 0.00 61 1015.0
20260902183505 90 205 4.3 10.4 0.00 0.00 0.00 61 1015.0
20260902183005 90 226 2.6 5.2 0.00 0.00 0.00 60 1014.9
20260902182004 90 162 2.6 8.7 0.00 0.00 0.00 62 1014.9
20260902181504 90 231 5.2 10.4 0.00 0.00 0.00 61 1014.9
20260902181005 90 195 2.6 7.8 0.00 0.00 0.00 62 1015.0
20260902180505 90 245 3.5 11.3 0.00 0.00 0.00 61 1015.1
20260902175505 90 187 2.6 10.4 0.00 0.00 0.00 63 1015.2
20260902175004 90 183 1.7 4.3 0.00 0.00 0.00 63 1015.2
20260902174505 90 219 1.7 7.0 0.00 0.00 0.00 63 1015.3
20260902174005 90 194 2.6 6.1 0.00 0.00 0.00 62 1015.4
20260902173505 90 237 3.5 7.0 0.00 0.00 0.00 61 1015.4
20260902173005 90 224 1.7 5.2 0.00 0.00 0.00 63 1015.5
20260902172505 90 215 1.7 8.7 0.00 0.00 0.00 62 1015.5
20260902172005 90 230 2.6 7.0 0.00 0.00 0.00 63 1015.6
20260902171505 90 179 1.7 6.1 0.00 0.00 0.00 63 1015.6
20260902171005 89 280 2.6 7.0 0.00 0.00 0.00 63 1015.7
20260902170505 89 247 3.5 7.8 0.00 0.00 0.00 63 1015.7
20260902170005 89 232 2.6 6.1 0.00 0.00 0.00 63 1015.7
20260902165505 89 242 2.6 7.8 0.00 0.00 0.00 63 1015.7
20260902165005 89 238 3.5 7.8 0.00 0.00 0.00 63 1015.8
20260902163505 89 250 2.6 6.1 0.00 0.00 0.00 63 1015.8
20260902162505 88 238 2.6 7.0 0.00 0.00 0.00 63 1015.9
20260902162005 88 221 2.6 6.1 0.00 0.00 0.00 63 1015.9
20260902161505 88 255 4.3 8.7 0.00 0.00 0.00 63 1015.9
20260902161005 88 208 1.7 7.0 0.00 0.00 0.00 63 1015.8
20260902160505 88 293 1.7 5.2 0.00 0.00 0.00 63 1015.8
20260902155505 88 216 1.7 5.2 0.00 0.00 0.00 63 1015.9
20260902155005 88 224 2.6 7.0 0.00 0.00 0.00 62 1015.9
20260902154505 87 232 2.6 7.8 0.00 0.00 0.00 61 1015.9
20260902154005 87 249 2.6 6.1 0.00 0.00 0.00 62 1015.9
20260902153505 87 263 2.6 6.1 0.00 0.00 0.00 60 1016.0
20260902153005 87 235 2.6 6.1 0.00 0.00 0.00 60 1016.0
20260902152504 87 278 1.7 2.6 0.00 0.00 0.00 58 1016.1
20260902152004 86 221 1.7 5.2 0.00 0.00 0.00 58 1016.1
20260902151505 86 266 1.7 5.2 0.00 0.00 0.00 57 1016.2
20260902151004 86 261 2.6 6.1 0.00 0.00 0.00 59 1016.1
20260902150504 86 264 2.6 7.8 0.00 0.00 0.00 55 1016.1
20260902150005 86 208 1.7 6.1 0.00 0.00 0.00 54 1016.1
20260902145505 85 152 1.7 2.6 0.00 0.00 0.00 52 1016.1
20260902145005 85 295 1.7 4.3 0.00 0.00 0.00 54 1016.2
20260902144505 85 243 1.7 2.6 0.00 0.00 0.00 52 1016.3
20260902143504 84 259 2.6 7.8 0.00 0.00 0.00 52 1016.3
20260902142505 84 279 2.6 6.1 0.00 0.00 0.00 50 1016.2
20260902141504 83 236 0.9 6.1 0.00 0.00 0.00 43 1016.2
20260902140005 83 234 2.6 2.6 0.00 0.00 0.00 38 1016.2
20260902135505 82 207 1.7 2.6 0.00 0.00 0.00 38 1016.3
20260902135005 82 240 1.7 5.2 0.00 0.00 0.00 38 1016.3
20260902134504 82 239 2.6 6.1 0.00 0.00 0.00 37 1016.4
20260902134005 81 241 2.6 7.0 0.00 0.00 0.00 37 1016.4
20260902133504 81 218 1.7 7.8 0.00 0.00 0.00 35 1016.5
20260902133004 81 263 1.7 2.6 0.00 0.00 0.00 30 1016.5
20260902132505 80 259 0.9 5.2 0.00 0.00 0.00 23 1016.4
20260902131505 79 234 0.9 2.6 0.00 0.00 0.00 20 1016.5
20260902131005 79 264 1.7 2.6 0.00 0.00 0.00 18 1016.4
20260902130505 79 262 0.9 7.0 0.00 0.00 0.00 12 1016.4
20260902130004 78 246 2.6 4.3 0.00 0.00 0.00 14 1016.5
20260902125504 78 225 0.9 2.6 0.00 0.00 0.00 6 1016.5
20260902125005 78 267 1.7 2.6 0.00 0.00 0.00 6 1016.4
20260902124504 78 235 0.0 0.9 0.00 0.00 0.00 3 1016.3
20260902124005 77 235 0.0 1.7 0.00 0.00 0.00 3 1016.3
20260902123504 77 235 0.0 0.0 0.00 0.00 0.00 3 1016.3
20260902123004 76 235 0.0 0.9 0.00 0.00 0.00 3 1016.4
20260902122505 76 235 0.9 2.6 0.00 0.00 0.00 3 1016.4
20260902122005 76 248 0.0 1.7 0.00 0.00 0.00 3 1016.2
20260902121504 75 248 0.0 1.7 0.00 0.00 0.00 3 1016.2
20260902121005 75 248 0.0 1.7 0.00 0.00 0.00 3 1016.2
20260902120505 75 248 0.0 0.0 0.00 0.00 0.00 3 1016.1
20260902120005 74 248 0.9 1.7 0.00 0.00 0.00 3 1016.0
20260902115506 74 248 0.0 1.7 0.00 0.00 0.00 3 1016.0
20260902115004 74 248 0.0 1.7 0.00 0.00 0.00 3 1016.0
20260902114504 74 252 0.9 1.7 0.00 0.00 0.00 3 1015.9
20260902114004 73 257 1.7 2.6 0.00 0.00 0.00 3 1015.8
20260902113505 73 207 0.0 1.7 0.00 0.00 0.00 3 1015.7
20260902112505 73 207 0.9 1.7 0.00 0.00 0.00 3 1015.7
20260902112004 73 207 0.0 1.7 0.00 0.00 0.00 3 1015.7
20260902111504 73 207 0.0 0.9 0.00 0.00 0.00 3 1015.6
20260902111005 73 207 0.0 0.9 0.00 0.00 0.00 3 1015.5
20260902110505 73 207 0.0 0.9 0.00 0.00 0.00 3 1015.5
20260902105505 73 207 0.0 1.7 0.00 0.00 0.00 3 1015.5
20260902105005 73 207 0.0 1.7 0.00 0.00 0.00 3 1015.5
20260902104505 73 207 0.9 2.6 0.00 0.00 0.00 3 1015.5
20260902104004 72 201 0.0 1.7 0.00 0.00 0.00 3 1015.5
20260902103505 72 201 0.0 1.7 0.00 0.00 0.00 3 1015.5
20260902103005 72 201 0.9 1.7 0.00 0.00 0.00 3 1015.5
20260902102505 72 201 0.9 1.7 0.00 0.00 0.00 3 1015.4
20260902101005 72 201 0.0 2.6 0.00 0.00 0.00 3 1015.4
20260902100505 72 201 0.0 1.7 0.00 0.00 0.00 3 1015.4
20260902095505 72 201 0.0 0.9 0.00 0.00 0.00 3 1015.4
20260902095005 72 201 0.0 0.9 0.00 0.00 0.00 3 1015.4
20260902094505 72 201 0.0 0.9 0.00 0.00 0.00 3 1015.3
20260902094004 72 201 0.0 1.7 0.00 0.00 0.00 3 1015.2
20260902093505 72 201 0.0 0.9 0.00 0.00 0.00 3 1015.2
20260902093005 71 201 0.0 0.9 0.00 0.00 0.00 3 1015.3
20260902092505 71 201 0.0 0.9 0.00 0.00 0.00 3 1015.3
20260902092005 71 201 0.0 1.7 0.00 0.00 0.00 3 1015.3
20260902091504 71 201 0.9 0.9 0.00 0.00 0.00 3 1015.2
20260902091005 71 201 0.0 0.9 0.00 0.00 0.00 3 1015.2
20260902090505 71 201 0.0 0.9 0.00 0.00 0.00 3 1015.2
20260902090005 71 201 0.0 0.9 0.00 0.00 0.00 3 1015.2
20260902085504 71 201 0.0 0.0 0.00 0.00 0.00 3 1015.2
20260902085005 71 201 0.9 1.7 0.00 0.00 0.00 3 1015.1
20260902084505 71 201 0.0 1.7 0.00 0.00 0.00 3 1015.1
20260902084005 71 201 0.0 1.7 0.00 0.00 0.00 3 1015.0
20260902082505 70 201 0.0 0.9 0.00 0.00 0.00 3 1014.8
20260902082005 71 201 0.0 0.0 0.00 0.00 0.00 3 1014.7
20260902081504 71 201 0.0 0.0 0.00 0.00 0.00 3 1014.8
20260902080505 71 201 0.0 0.9 0.00 0.00 0.00 3 1014.7
20260902075505 71 201 0.0 0.0 0.00 0.00 0.00 3 1014.7
20260902075005 71 201 0.0 1.7 0.00 0.00 0.00 3 1014.7
20260902074504 71 201 0.0 0.9 0.00 0.00 0.00 3 1014.7
20260902074004 71 201 0.0 0.9 0.00 0.00 0.00 3 1014.6
20260902073504 71 201 0.0 0.0 0.00 0.00 0.00 3 1014.7
20260902073005 71 201 0.9 1.7 0.00 0.00 0.00 3 1014.7
20260902072504 71 201 0.0 0.0 0.00 0.00 0.00 3 1014.6
20260902072005 71 201 0.0 0.0 0.00 0.00 0.00 3 1014.6
20260902071504 71 201 0.0 0.0 0.00 0.00 0.00 3 1014.7
20260902070504 71 201 0.0 0.0 0.00 0.00 0.00 3 1014.7
20260902065505 72 201 0.0 0.0 0.00 0.00 0.00 3 1014.7
20260902065004 72 201 0.0 0.0 0.00 0.00 0.00 3 1014.7
20260902064005 72 201 0.0 0.0 0.00 0.00 0.00 3 1014.9
20260902063004 72 201 0.0 0.0 0.00 0.00 0.00 3 1014.8
20260902062504 72 201 0.0 0.9 0.00 0.00 0.00 3 1014.9
20260902062004 72 201 0.0 0.0 0.00 0.00 0.00 3 1014.8
20260902061004 72 201 0.0 0.0 0.00 0.00 0.00 3 1014.8
20260902060505 73 201 0.0 0.0 0.00 0.00 0.00 3 1014.8
20260902060005 73 201 0.0 0.9 0.00 0.00 0.00 3 1014.8
20260902055504 73 201 0.0 0.0 0.00 0.00 0.00 3 1014.8
20260902055005 73 201 0.0 0.0 0.00 0.00 0.00 3 1014.9
20260902054005 73 201 0.0 0.0 0.00 0.00 0.00 3 1014.9
20260902053504 73 201 0.0 0.0 0.00 0.00 0.00 3 1014.9
20260902053004 74 201 0.0 0.0 0.00 0.00 0.00 3 1014.9
20260902052005 74 201 0.0 0.0 0.00 0.00 0.00 3 1014.8
20260902051505 74 201 0.0 0.0 0.00 0.00 0.00 3 1014.9
20260902051004 74 201 0.0 0.0 0.00 0.00 0.00 3 1014.9
20260902050007 74 201 0.0 0.0 0.00 0.00 0.00 3 1014.9
20260902045504 75 201 0.0 0.0 0.00 0.00 0.00 3 1014.9
20260902045004 75 201 0.0 0.0 0.00 0.00 0.00 3 1014.9
20260902044504 75 201 0.0 0.9 0.00 0.00 0.00 3 1014.9
20260902044004 75 201 0.0 0.9 0.00 0.00 0.00 3 1014.9
20260902043505 75 201 0.0 2.6 0.00 0.00 0.00 3 1014.9
20260902041505 76 201 0.0 1.7 0.00 0.00 0.00 3 1014.9
20260902041005 76 201 0.9 2.6 0.00 0.00 0.00 3 1014.9
20260902040505 76 201 0.0 0.9 0.00 0.00 0.00 3 1014.9
20260902040005 76 201 0.0 0.0 0.00 0.00 0.00 3 1015.0
20260902035004 76 201 0.0 0.9 0.00 0.00 0.00 3 1014.9
20260902034505 76 201 0.0 0.9 0.00 0.00 0.00 3 1014.9
20260902034004 76 201 0.0 0.9 0.00 0.00 0.00 3 1014.9
20260902033505 77 201 0.0 1.7 0.00 0.00 0.00 3 1014.9
20260902033004 77 201 0.0 0.9 0.00 0.00 0.00 3 1015.0
20260902032505 77 201 0.0 1.7 0.00 0.00 0.00 3 1014.9
20260902032004 77 201 0.0 0.9 0.00 0.00 0.00 3 1014.9
20260902031504 77 201 0.0 0.9 0.00 0.00 0.00 3 1015.0
20260902031005 77 201 0.0 0.9 0.00 0.00 0.00 3 1014.9
20260902030505 77 201 0.0 0.9 0.00 0.00 0.00 3 1014.9
20260902025504 77 201 0.0 0.9 0.00 0.00 0.00 3 1014.9
20260902024504 77 201 0.0 0.9 0.00 0.00 0.00 3 1014.9
20260902024005 77 201 0.0 0.0 0.00 0.00 0.00 3 1014.9
20260902023504 77 201 0.0 0.9 0.00 0.00 0.00 3 1014.8
20260902023004 77 201 0.0 0.9 0.00 0.00 0.00 3 1014.9
20260902022005 77 201 0.0 0.9 0.00 0.00 0.00 3 1014.9
20260902021504 77 201 0.0 0.9 0.00 0.00 0.00 3 1014.8
20260902021005 78 201 0.0 0.0 0.00 0.00 0.00 3 1014.9
20260902020504 78 201 0.0 1.7 0.00 0.00 0.00 3 1014.8
20260902020005 78 201 0.0 0.9 0.00 0.00 0.00 3 1014.9
20260902015504 78 201 0.0 0.9 0.00 0.00 0.00 3 1014.9
20260902015004 78 201 0.0 0.0 0.00 0.00 0.00 3 1014.8
20260902014505 78 201 0.0 0.0 0.00 0.00 0.00 3 1014.7
20260902013505 78 201 0.0 0.0 0.00 0.00 0.00 3 1014.8
20260902013004 78 201 0.0 0.0 0.00 0.00 0.00 9 1014.7
20260902012504 79 201 0.0 0.0 0.00 0.00 0.00 11 1014.6
20260902011504 79 201 0.0 0.0 0.00 0.00 0.00 15 1014.4
20260902010005 80 201 0.0 0.0 0.00 0.00 0.00 24 1014.2
20260902005505 80 201 0.0 0.9 0.00 0.00 0.00 24 1014.1
20260902005004 80 201 0.0 0.9 0.00 0.00 0.00 25 1014.1
20260902004504 80 201 0.0 0.0 0.00 0.00 0.00 26 1014.0
20260902003005 81 201 0.0 0.0 0.00 0.00 0.00 31 1013.9
20260902002004 82 201 0.0 0.0 0.00 0.00 0.00 35 1013.9
20260902001504 82 201 0.0 0.0 0.00 0.00 0.00 40 1014.0
20260902001004 83 201 0.0 0.0 0.00 0.00 0.00 41 1014.0
20260902000504 83 201 0.0 0.0 0.00 0.00 0.00 47 1014.1
20260902000005 84 201 0.0 0.0 0.00 0.00 0.00 48 1014.1
20260901235504 85 201 0.0 0.0 0.00 0.00 0.00 52 1014.1
20260901234504 86 201 0.0 0.0 0.00 0.00 0.00 59 1014.1
20260901234004 87 201 0.0 1.7 0.00 0.00 0.00 62 1014.1
20260901233504 87 201 0.0 0.0 0.00 0.00 0.00 62 1014.2
20260901233005 88 201 0.0 0.0 0.00 0.00 0.00 63 1014.2
20260901232004 89 201 0.9 1.7 0.00 0.00 0.00 64 1014.3
20260901231504 90 201 0.9 1.7 0.00 0.00 0.00 63 1014.3
20260901231004 90 201 0.0 0.9 0.00 0.00 0.00 63 1014.3
20260901230505 91 201 0.0 0.0 0.00 0.00 0.00 63 1014.3
20260901230004 91 201 0.0 0.9 0.00 0.00 0.00 63 1014.3
20260901225505 91 201 0.0 0.9 0.00 0.00 0.00 63 1014.3
20260901225004 91 201 0.9 1.7 0.00 0.00 0.00 62 1014.3
20260901224504 91 201 0.0 1.7 0.00 0.00 0.00 62 1014.3
20260901223505 91 189 0.0 1.7 0.00 0.00 0.00 61 1014.3
20260901223006 91 189 0.0 1.7 0.00 0.00 0.00 63 1014.3
20260901222505 91 189 0.9 2.6 0.00 0.00 0.00 62 1014.2
20260901222004 91 203 0.9 2.6 0.00 0.00 0.00 61 1014.3
20260901221505 91 236 0.9 5.2 0.00 0.00 0.00 62 1014.3
20260901220504 91 179 0.0 2.6 0.00 0.00 0.00 61 1014.3
20260901220004 91 170 1.7 4.3 0.00 0.00 0.00 60 1014.2
20260901215504 91 243 1.7 5.2 0.00 0.00 0.00 59 1014.2
20260901215005 92 209 0.9 2.6 0.00 0.00 0.00 60 1014.1
20260901214004 91 227 2.6 4.3 0.00 0.00 0.00 59 1014.2
20260901213504 91 217 3.5 6.1 0.00 0.00 0.00 59 1014.2
20260901213005 91 223 2.6 5.2 0.00 0.00 0.00 60 1014.2
20260901212504 91 171 0.9 2.6 0.00 0.00 0.00 61 1014.2
20260901212004 91 223 1.7 5.2 0.00 0.00 0.00 60 1014.2
20260901211004 91 251 2.6 8.7 0.00 0.00 0.00 59 1014.3
20260901210505 91 213 3.5 7.0 0.00 0.00 0.00 59 1014.3
20260901210004 91 269 3.5 8.7 0.00 0.00 0.00 60 1014.3
20260901205504 91 196 2.6 7.0 0.00 0.00 0.00 61 1014.3
20260901205004 91 170 2.6 6.1 0.00 0.00 0.00 60 1014.3
20260901204004 91 210 1.7 7.8 0.00 0.00 0.00 61 1014.4
20260901203504 91 191 3.5 6.1 0.00 0.00 0.00 60 1014.4
20260901203004 91 246 2.6 7.0 0.00 0.00 0.00 61 1014.4
20260901202504 91 188 2.6 5.2 0.00 0.00 0.00 62 1014.4
20260901202004 91 197 1.7 7.0 0.00 0.00 0.00 61 1014.5
20260901201505 91 181 4.3 8.7 0.00 0.00 0.00 60 1014.4
20260901201004 91 248 4.3 10.4 0.00 0.00 0.00 61 1014.5
20260901200504 91 189 4.3 7.0 0.00 0.00 0.00 61 1014.4
20260901200004 91 170 4.3 8.7 0.00 0.00 0.00 61 1014.4